SCP
0 0 0 0 0 0 0 0 0 0 0 0 0 0 0 0 0 0 0 0 0 0 0 0 0 0 0 0 0 0 0 0
0 0 0 0 0 0 0 0 0 0 0 0 0 0 0 0 0 0 0 0 0 0 0 0 0 0 0 0 0 0 0 0
0 0 0 0 0 0 0 0 0 0 0 0 0 0 0 0 0 0 0 0 0 0 0 0 0 0 0 0 0 0 0 0
0 0 0 0 0 0 0 0 0 0 0 0 0 0 0 0 0 0 0 0 0 0 0 0 0 0 0 0 0 0 0 0
0 0 0 0 0 0 0 0 0 0 0 0 0 0 0 0 0 0 0 0 0 0 0 0 0 0 0 0 0 0 0 0
0 0 0 0 0 0 0 0 0 0 0 0 0 0 0 0 0 0 0 0 0 0 0 0 0 0 0 0 0 0 0 0
0 0 0 0 0 0 0 0 0 0 0 0 0 0 0 0 0 0 0 0 0 0 0 0 0 0 0 0 0 0 0 0
0 0 0 0 0 0 0 0 0 0 0 0 0 0 0 0 0 0 0 0 0 0 0 0 0 0 0 0 0 0 0 0
0 0 0 0 0 0 0 0 0 0 0 0 0 0 0 0 0 0 0 0 0 0 0 0 0 0 0 0 0 0 0 0
0 0 0 0 0 0 0 0 0 0 0 0 0 0 0 0 0 0 0 0 0 0 0 0 0 0 0 0 0 0 0 0
0 0 0 0 0 0 0 0 0 0 0 0 0 0 0 0 0 0 0 0 0 0 0 0 0 0 0 0 0 0 0 0
0 0 0 0 0 0 0 0 0 0 0 0 0 0 0 0 0 0 0 0 0 0 0 0 0 0 0 0 0 0 0 0
0 0 0 0 0 0 0 0 0 0 0 0 0 0 0 0 0 0 0 0 0 0 0 0 0 0 0 0 0 0 0 0
0 0 0 0 0 0 0 0 0 0 0 0 0 0 0 0 0 0 0 0 0 0 0 0 0 0 0 0 0 0 0 0
0 0 0 0 0 0 0 0 0 0 0 0 0 0 0 0 0 0 0 0 0 0 0 0 0 0 0 0 0 0 0 0
0 0 0 0 0 0 0 0 0 0 0 0 0 0 0 0 0 0 0 0 0 0 0 0 0 0 0 0 0 0 -0 -0
0 0 0 0 0 0 0 0 0 0 0 0 0 0 0 0 0 0 0 0 0 0 0 0 0 0 0 0 0 -0 -0 -0
0 0 0 0 0 0 0 0 0 0 0 0 0 0 0 0 0 0 0 0 0 0 0 0 0 0 0 0 0 -0 -0 -0
0 0 0 0 0 0 0 0 0 0 0 0 0 0 0 0 0 0 0 0 0 0 0 0 0 0 0 0 0 0 -0 -0
0 0 0 0 0 0 0 0 0 0 0 0 0 0 0 0 0 0 0 0 0 0 0 0 0 0 0 0 0 -0 -0 -0
Wind_Speed_500mb
45 46 43 44 51 59 75 99 101 89 80 69 57 49 46 42 41 40 43 48 56 63 69 71 72 73 73 75 74 73 77 77
46 47 48 49 55 66 77 94 102 92 82 69 57 51 43 41 40 41 44 50 58 65 70 74 74 72 74 77 79 81 81 77
46 53 60 59 63 73 78 95 101 92 79 66 56 47 42 40 40 41 45 53 61 69 72 74 73 73 76 79 78 79 83 80
57 63 71 69 69 75 81 95 100 89 76 63 52 45 40 38 38 42 48 56 63 68 71 73 74 75 77 79 81 80 77 73
81 81 79 72 72 78 83 98 96 85 72 59 50 42 38 37 38 42 50 56 61 64 67 71 75 77 79 80 80 76 74 76
87 88 79 71 75 81 89 97 92 80 67 55 45 38 36 35 37 43 47 53 59 63 66 68 74 77 81 80 73 75 83 80
90 85 78 78 83 86 90 98 89 76 62 50 41 36 33 34 37 41 46 49 53 58 64 69 73 76 79 70 79 78 83 91
87 84 79 80 81 87 92 100 85 70 57 46 38 33 32 32 33 37 42 46 52 57 63 69 73 74 76 67 75 84 89 87
85 74 71 73 75 82 93 96 80 67 53 44 38 32 30 29 30 33 40 46 51 57 62 67 66 71 72 67 78 81 82 83
75 58 68 72 78 82 96 90 76 63 54 45 35 30 26 24 27 33 37 43 48 56 63 64 66 71 65 69 79 83 94 88
52 48 58 69 72 80 100 87 76 64 51 40 31 25 21 20 25 32 37 42 49 53 58 59 68 69 63 67 79 94 95 95
38 50 58 67 75 94 90 79 68 57 46 35 27 20 16 18 25 32 37 41 47 53 54 57 61 69 60 67 79 90 98 99
48 61 64 74 88 98 89 79 67 55 44 32 23 16 13 17 24 30 35 40 46 48 49 51 60 60 61 70 76 81 89 91
59 64 69 85 95 94 85 73 63 52 40 30 20 14 10 16 21 26 32 40 41 38 47 54 61 65 66 78 80 79 76 77
70 71 83 96 92 85 79 68 53 42 34 26 20 13 8 14 18 21 29 34 31 35 46 56 61 67 81 88 95 85 81 81
76 82 102 106 97 85 75 65 54 41 30 25 19 11 7 11 14 19 22 25 28 33 39 50 61 65 67 74 81 73 73 66
82 98 112 106 97 86 74 64 52 42 35 28 20 14 8 5 12 17 17 21 25 29 30 38 44 55 60 65 65 61 66 71
101 110 111 105 92 86 74 64 53 41 33 28 22 15 9 6 3 4 10 16 22 27 31 35 43 49 54 58 62 63 71 85
104 115 113 98 94 84 74 64 52 43 35 29 21 15 10 4 3 6 11 14 17 23 30 35 43 45 52 58 63 78 85 83
106 117 113 104 97 84 74 62 51 42 38 31 24 18 12 5 3 10 16 20 25 25 22 27 39 45 52 59 69 77 83 85
Wind_Direction_500mb
237 237 234 244 247 240 235 230 227 226 228 232 241 251 261 272 283 289 295 303 305 304 304 306 306 304 300 296 294 290 290 285
234 235 239 246 246 239 232 224 224 224 225 230 240 251 262 272 280 288 298 303 302 304 306 307 305 304 300 298 296 294 293 288
233 241 241 248 243 236 227 221 221 222 223 229 239 250 261 272 282 292 297 300 303 306 307 307 307 307 304 300 298 295 294 290
245 248 248 247 240 231 224 219 218 218 221 228 237 248 260 272 282 290 299 304 305 308 310 312 311 309 307 303 301 297 293 289
258 256 255 246 239 229 222 218 215 215 219 226 236 247 258 268 280 294 302 304 308 312 312 313 313 312 310 305 302 299 293 290
262 258 253 242 237 229 223 214 213 212 216 224 234 245 257 272 288 297 304 309 313 315 314 316 315 314 311 307 303 299 298 294
261 261 253 243 235 226 220 211 209 210 214 222 230 242 258 275 289 300 307 311 314 313 315 317 315 315 313 307 304 300 301 301
260 262 256 244 233 224 216 208 204 206 211 218 227 240 257 276 290 303 309 313 315 315 316 315 315 318 316 308 305 305 302 302
266 261 248 235 226 219 210 202 199 202 207 214 223 238 257 277 295 309 311 315 317 317 316 314 321 321 321 314 307 305 307 302
274 262 235 223 217 211 197 195 195 198 203 208 219 238 259 280 302 308 313 315 317 318 317 318 325 333 321 316 316 313 307 305
260 239 224 215 211 201 192 190 192 194 198 205 218 238 260 287 306 311 317 321 319 318 317 327 335 336 322 320 318 314 311 309
241 227 218 211 201 192 189 189 190 191 194 202 215 238 267 297 311 317 320 321 318 317 328 335 334 336 327 325 321 318 314 311
225 215 210 203 193 188 187 187 186 186 192 199 213 230 263 302 310 316 320 320 318 327 334 334 338 337 333 329 325 321 316 314
221 213 201 195 190 185 184 183 184 185 189 194 200 225 268 296 309 317 323 321 334 331 331 334 341 345 341 336 332 328 324 323
215 203 196 188 186 188 181 179 182 186 188 188 195 209 256 291 306 325 321 332 337 332 336 339 343 348 345 341 338 335 337 329
213 203 191 186 183 183 182 178 181 183 187 190 187 198 242 285 317 324 331 346 337 338 340 340 343 347 342 343 342 343 339 337
208 199 190 184 180 179 180 181 181 180 187 187 188 191 200 283 317 330 347 351 345 347 344 343 342 345 345 348 349 352 354 6
205 196 187 183 181 180 183 181 178 182 184 185 185 185 184 198 240 316 360 354 352 356 355 357 354 354 351 352 5 14 10 17
199 189 186 184 184 183 182 181 180 178 182 185 183 180 181 187 301 24 29 21 20 8 2 8 9 7 5 7 9 19 24 20
194 184 184 186 182 183 183 182 180 179 181 176 172 176 171 183 63 36 26 14 11 13 11 12 17 14 13 17 21 20 20 19
Wind_Speed_850mb
45 46 43 44 51 59 75 99 101 89 80 69 57 49 46 42 41 40 43 48 56 63 69 71 72 73 73 75 74 73 77 77
46 47 48 49 55 66 77 94 102 92 82 69 57 51 43 41 40 41 44 50 58 65 70 74 74 72 74 77 79 81 81 77
46 53 60 59 63 73 78 95 101 92 79 66 56 47 42 40 40 41 45 53 61 69 72 74 73 73 76 79 78 79 83 80
57 63 71 69 69 75 81 95 100 89 76 63 52 45 40 38 38 42 48 56 63 68 71 73 74 75 77 79 81 80 77 73
81 81 79 72 72 78 83 98 96 85 72 59 50 42 38 37 38 42 50 56 61 64 67 71 75 77 79 80 80 76 74 76
87 88 79 71 75 81 89 97 92 80 67 55 45 38 36 35 37 43 47 53 59 63 66 68 74 77 81 80 73 75 83 80
90 85 78 78 83 86 90 98 89 76 62 50 41 36 33 34 37 41 46 49 53 58 64 69 73 76 79 70 79 78 83 91
87 84 79 80 81 87 92 100 85 70 57 46 38 33 32 32 33 37 42 46 52 57 63 69 73 74 76 67 75 84 89 87
85 74 71 73 75 82 93 96 80 67 53 44 38 32 30 29 30 33 40 46 51 57 62 67 66 71 72 67 78 81 82 83
75 58 68 72 78 82 96 90 76 63 54 45 35 30 26 24 27 33 37 43 48 56 63 64 66 71 65 69 79 83 94 88
52 48 58 69 72 80 100 87 76 64 51 40 31 25 21 20 25 32 37 42 49 53 58 59 68 69 63 67 79 94 95 95
38 50 58 67 75 94 90 79 68 57 46 35 27 20 16 18 25 32 37 41 47 53 54 57 61 69 60 67 79 90 98 99
48 61 64 74 88 98 89 79 67 55 44 32 23 16 13 17 24 30 35 40 46 48 49 51 60 60 61 70 76 81 89 91
59 64 69 85 95 94 85 73 63 52 40 30 20 14 10 16 21 26 32 40 41 38 47 54 61 65 66 78 80 79 76 77
70 71 83 96 92 85 79 68 53 42 34 26 20 13 8 14 18 21 29 34 31 35 46 56 61 67 81 88 95 85 81 81
76 82 102 106 97 85 75 65 54 41 30 25 19 11 7 11 14 19 22 25 28 33 39 50 61 65 67 74 81 73 73 66
82 98 112 106 97 86 74 64 52 42 35 28 20 14 8 5 12 17 17 21 25 29 30 38 44 55 60 65 65 61 66 71
101 110 111 105 92 86 74 64 53 41 33 28 22 15 9 6 3 4 10 16 22 27 31 35 43 49 54 58 62 63 71 85
104 115 113 98 94 84 74 64 52 43 35 29 21 15 10 4 3 6 11 14 17 23 30 35 43 45 52 58 63 78 85 83
106 117 113 104 97 84 74 62 51 42 38 31 24 18 12 5 3 10 16 20 25 25 22 27 39 45 52 59 69 77 83 85
Wind_Direction_850mb
237 237 234 244 247 240 235 230 227 226 228 232 241 251 261 272 283 289 295 303 305 304 304 306 306 304 300 296 294 290 290 285
234 235 239 246 246 239 232 224 224 224 225 230 240 251 262 272 280 288 298 303 302 304 306 307 305 304 300 298 296 294 293 288
233 241 241 248 243 236 227 221 221 222 223 229 239 250 261 272 282 292 297 300 303 306 307 307 307 307 304 300 298 295 294 290
245 248 248 247 240 231 224 219 218 218 221 228 237 248 260 272 282 290 299 304 305 308 310 312 311 309 307 303 301 297 293 289
258 256 255 246 239 229 222 218 215 215 219 226 236 247 258 268 280 294 302 304 308 312 312 313 313 312 310 305 302 299 293 290
262 258 253 242 237 229 223 214 213 212 216 224 234 245 257 272 288 297 304 309 313 315 314 316 315 314 311 307 303 299 298 294
261 261 253 243 235 226 220 211 209 210 214 222 230 242 258 275 289 300 307 311 314 313 315 317 315 315 313 307 304 300 301 301
260 262 256 244 233 224 216 208 204 206 211 218 227 240 257 276 290 303 309 313 315 315 316 315 315 318 316 308 305 305 302 302
266 261 248 235 226 219 210 202 199 202 207 214 223 238 257 277 295 309 311 315 317 317 316 314 321 321 321 314 307 305 307 302
274 262 235 223 217 211 197 195 195 198 203 208 219 238 259 280 302 308 313 315 317 318 317 318 325 333 321 316 316 313 307 305
260 239 224 215 211 201 192 190 192 194 198 205 218 238 260 287 306 311 317 321 319 318 317 327 335 336 322 320 318 314 311 309
241 227 218 211 201 192 189 189 190 191 194 202 215 238 267 297 311 317 320 321 318 317 328 335 334 336 327 325 321 318 314 311
225 215 210 203 193 188 187 187 186 186 192 199 213 230 263 302 310 316 320 320 318 327 334 334 338 337 333 329 325 321 316 314
221 213 201 195 190 185 184 183 184 185 189 194 200 225 268 296 309 317 323 321 334 331 331 334 341 345 341 336 332 328 324 323
215 203 196 188 186 188 181 179 182 186 188 188 195 209 256 291 306 325 321 332 337 332 336 339 343 348 345 341 338 335 337 329
213 203 191 186 183 183 182 178 181 183 187 190 187 198 242 285 317 324 331 346 337 338 340 340 343 347 342 343 342 343 339 337
208 199 190 184 180 179 180 181 181 180 187 187 188 191 200 283 317 330 347 351 345 347 344 343 342 345 345 348 349 352 354 6
205 196 187 183 181 180 183 181 178 182 184 185 185 185 184 198 240 316 360 354 352 356 355 357 354 354 351 352 5 14 10 17
199 189 186 184 184 183 182 181 180 178 182 185 183 180 181 187 301 24 29 21 20 8 2 8 9 7 5 7 9 19 24 20
194 184 184 186 182 183 183 182 180 179 181 176 172 176 171 183 63 36 26 14 11 13 11 12 17 14 13 17 21 20 20 19